Weather in Põltsamaa

Estonia     58°39′10″N   25°58′34″E
В апреле 2022 года жителям России запретили посещать сайт meteo.paraplan.net по решению Генеральной прокуратуры. Аудитория сайта уменьшилась в 10 раз. Владельцы сайта не видят смысла в поддержке погодного сервера в таких условиях. Сайт будет закрыт в октябре.
temp.,
°C
wind,
m/s
gust,
m/s
humid.,
%
clouds,
%
prec.,
mm/h
press.,
hPa
HPBL,
m
3 october, mon
mon300:00+5ne2489100 0.0 100980
03:00+6ne3983100 0.0 1009291
06:00+6nne41284100 0.0 1008646
09:00+8nne51374100 0.0 10081121
12:00+10nne71567100 0.0 10071311
15:00+9nne71671100 0.1 10051363
18:00+8n71670100 0.1 10041372
21:00+8n71668100 0.2 10031293
4 october, tue
tue400:00+7n61488100 1.5 10021278
03:00+7n61292100 6.0 10011131
06:00+6n51093100 5.7 10011058
09:00+6nnw51094100 10.1 1001944
12:00+6nw51293100 1.3 1002790
15:00+7nnw499498 1.4 1004679
18:00+8nw489396 0.1 1006422
21:00+7nw3896100 0.1 1008331
5 october, wed
wed500:00+7nw399598 0.1 1009472
03:00+7wnw389365 0.1 1010323
06:00+6w229130 0.0 101056
09:00+6wsw2390100 0.0 1011116
12:00+7s2695100 0.4 1011241
15:00+9s31098100 1.2 1010448
18:00+11ssw41196100 0.0 1008772
21:00+12sw3997100 0.1 1009484
6 october, thu
thu600:00+12sw31099100 0.1 1009503
03:00+12sw41198100 0.2 1009686
06:00+12sw51191100 0.0 1007710
09:00+11ssw51393100 0.0 1006811
12:00+12sw61395100 0.4 1006996
15:00+14w6137111 0.7 10081486
18:00+12wsw6157499 0.3 10091470
21:00+12wsw7157192 0.3 10101367
7 october, fri
fri700:00+12wsw7167399 0.0 10111461
03:00+12wsw81666100 0.1 10111724
06:00+11w7157281 0.1 10121591
09:00+11w71465100 0.3 10131488
12:00+13w613660 0.0 10141310
15:00+15wsw512626 0.1 10141463
18:00+12sw6137794 0.0 10141039
21:00+12sw61479100 0.0 10131237